LNYLP ENZV-ENZV

Flight info

Callsign LNYLP
Flight time 0h 3m
Altitude 1000
Route
Aircraft C172

Departure

Time 2026-04-23 18:52
Airport Stavanger Airport, Sola (ENZV)

Arrival

Time 2026-04-23 18:56
Airport Stavanger Airport, Sola (ENZV)
Time Latitude Longitude Altitude Speed Heading
2026-04-23 18:23 58.89290 5.63281 19 ft 0 kts 267°
2026-04-23 18:27 58.89289 5.63272 19 ft 0 kts 229°
2026-04-23 18:28 58.89286 5.63269 19 ft 2 kts 197°
2026-04-23 18:28 58.89257 5.63310 19 ft 6 kts 173°
2026-04-23 18:28 58.89192 5.63318 20 ft 13 kts 174°
2026-04-23 18:28 58.89121 5.63349 20 ft 11 kts 177°
2026-04-23 18:29 58.89053 5.63351 20 ft 7 kts 179°
2026-04-23 18:29 58.88991 5.63408 22 ft 13 kts 177°
2026-04-23 18:29 58.88885 5.63413 25 ft 18 kts 179°
2026-04-23 18:29 58.88753 5.63417 26 ft 20 kts 177°
2026-04-23 18:30 58.88629 5.63423 26 ft 15 kts 180°
2026-04-23 18:30 58.88548 5.63421 26 ft 9 kts 174°
2026-04-23 18:30 58.88492 5.63422 26 ft 7 kts 182°
2026-04-23 18:30 58.88425 5.63428 26 ft 18 kts 179°
2026-04-23 18:31 58.88239 5.63432 25 ft 32 kts 182°
2026-04-23 18:31 58.88068 5.63437 25 ft 19 kts 177°
2026-04-23 18:31 58.87964 5.63389 27 ft 13 kts 206°
2026-04-23 18:31 58.87888 5.63328 26 ft 10 kts 205°
2026-04-23 18:32 58.87865 5.63304 26 ft 0 kts 221°
2026-04-23 18:32 58.87862 5.63301 26 ft 2 kts 208°
2026-04-23 18:32 58.87764 5.63312 26 ft 22 kts 145°
2026-04-23 18:33 58.87707 5.63633 28 ft 19 kts 105°
2026-04-23 18:33 58.87695 5.63747 28 ft 2 kts 68°
2026-04-23 18:33 58.87726 5.63819 29 ft 8 kts 51°
2026-04-23 18:33 58.87754 5.63937 30 ft 3 kts 25°
2026-04-23 18:34 58.87758 5.63941 29 ft 3 kts 10°
2026-04-23 18:34 58.87745 5.63960 30 ft 8 kts 227°
2026-04-23 18:34 58.89290 5.63281 27 ft 22 kts 266°
2026-04-23 18:40 58.89290 5.63280 19 ft 1 kts 273°
2026-04-23 18:40 58.89296 5.63302 18 ft 7 kts 147°
2026-04-23 18:40 58.89251 5.63311 19 ft 10 kts 175°
2026-04-23 18:40 58.89155 5.63335 21 ft 14 kts 155°
2026-04-23 18:41 58.89069 5.63352 20 ft 11 kts 171°
2026-04-23 18:41 58.89010 5.63392 21 ft 7 kts 138°
2026-04-23 18:41 58.88970 5.63410 23 ft 10 kts 179°
2026-04-23 18:41 58.88877 5.63412 25 ft 16 kts 179°
2026-04-23 18:42 58.88737 5.63415 26 ft 22 kts 183°
2026-04-23 18:42 58.88605 5.63418 26 ft 16 kts 185°
2026-04-23 18:42 58.88506 5.63423 26 ft 13 kts 181°
2026-04-23 18:42 58.88427 5.63425 26 ft 9 kts 179°
2026-04-23 18:43 58.88356 5.63426 26 ft 14 kts 178°
2026-04-23 18:43 58.88212 5.63435 25 ft 28 kts 179°
2026-04-23 18:43 58.88018 5.63425 25 ft 21 kts 204°
2026-04-23 18:43 58.87906 5.63340 26 ft 14 kts 201°
2026-04-23 18:44 58.87865 5.63309 26 ft 0 kts 198°
2026-04-23 18:48 58.87850 5.63298 26 ft 6 kts 195°
2026-04-23 18:49 58.87800 5.63290 26 ft 9 kts 172°
2026-04-23 18:49 58.87751 5.63360 27 ft 8 kts 108°
2026-04-23 18:49 58.87734 5.63437 27 ft 7 kts 121°
2026-04-23 18:49 58.87712 5.63563 27 ft 11 kts 105°
2026-04-23 18:50 58.87702 5.63633 28 ft 6 kts 102°
2026-04-23 18:50 58.87681 5.63764 28 ft 7 kts 104°
2026-04-23 18:50 58.87709 5.63790 28 ft 4 kts 354°
2026-04-23 18:50 58.87712 5.63789 28 ft 0 kts 358°
2026-04-23 18:51 58.87803 5.63775 28 ft 37 kts 356°
2026-04-23 18:51 58.88138 5.63809 121 ft 59 kts 351°
2026-04-23 18:51 58.88560 5.63850 382 ft 58 kts
2026-04-23 18:52 58.88946 5.64033 620 ft 63 kts
2026-04-23 18:52 58.89270 5.63625 707 ft 82 kts 303°
2026-04-23 18:52 58.89417 5.62417 837 ft 102 kts 276°
2026-04-23 18:52 58.89009 5.61167 1075 ft 118 kts 238°
2026-04-23 18:53 58.88182 5.60567 1169 ft 141 kts 187°
2026-04-23 18:53 58.87221 5.60649 1220 ft 138 kts 176°
2026-04-23 18:53 58.86293 5.60861 1132 ft 131 kts 175°
2026-04-23 18:53 58.85394 5.61048 950 ft 122 kts 178°
2026-04-23 18:54 58.84675 5.61588 846 ft 107 kts 121°
2026-04-23 18:54 58.84535 5.62766 678 ft 81 kts 56°
2026-04-23 18:54 58.84806 5.63493 568 ft 62 kts 11°
2026-04-23 18:54 58.85233 5.63699 466 ft 65 kts
2026-04-23 18:55 58.85668 5.63794 381 ft 62 kts 356°
2026-04-23 18:55 58.86097 5.63805 294 ft 62 kts 354°
2026-04-23 18:55 58.86515 5.63822 200 ft 56 kts 353°
2026-04-23 18:55 58.86878 5.63805 92 ft 51 kts 353°
2026-04-23 18:56 58.87111 5.63800 43 ft 49 kts 352°
2026-04-23 18:56 58.87482 5.63806 65 ft 44 kts 352°
2026-04-23 18:56 58.87849 5.63827 191 ft 61 kts 358°
2026-04-23 18:56 58.88294 5.63820 330 ft 65 kts
2026-04-23 18:57 58.88751 5.63859 463 ft 68 kts
2026-04-23 18:57 58.89029 5.63796 649 ft 62 kts 322°
2026-04-23 18:57 58.89106 5.62752 746 ft 90 kts 283°
2026-04-23 18:57 58.89084 5.61506 1083 ft 91 kts 268°
2026-04-23 18:58 58.88408 5.60647 1078 ft 143 kts 199°
2026-04-23 18:58 58.87412 5.60798 872 ft 146 kts 155°
2026-04-23 18:58 58.86749 5.62010 621 ft 121 kts 104°
2026-04-23 18:58 58.86776 5.63334 359 ft 85 kts 36°
2026-04-23 18:59 58.87222 5.63773 83 ft 68 kts 357°
2026-04-23 18:59 58.87621 5.63793 30 ft 45 kts 349°
2026-04-23 18:59 58.87950 5.63777 73 ft 59 kts
2026-04-23 18:59 58.88400 5.63812 288 ft 67 kts 358°
2026-04-23 19:00 58.88850 5.63780 551 ft 63 kts 335°
2026-04-23 19:00 58.89056 5.62920 665 ft 90 kts 285°
2026-04-23 19:00 58.88689 5.61726 690 ft 122 kts 230°
2026-04-23 19:00 58.87871 5.61298 632 ft 120 kts 192°
2026-04-23 19:01 58.87064 5.61180 599 ft 110 kts 193°
2026-04-23 19:01 58.86339 5.61048 590 ft 107 kts 195°
2026-04-23 19:01 58.85604 5.60901 593 ft 103 kts 204°
2026-04-23 19:01 58.84920 5.60657 631 ft 94 kts 211°
2026-04-23 19:02 58.84299 5.60299 694 ft 99 kts 212°
2026-04-23 19:02 58.83556 5.59817 711 ft 115 kts 216°
2026-04-23 19:02 58.82805 5.59326 887 ft 107 kts 218°
2026-04-23 19:02 58.82150 5.58843 1122 ft 102 kts 206°
2026-04-23 19:03 58.81449 5.59413 1121 ft 130 kts 119°
2026-04-23 19:03 58.81250 5.60985 1031 ft 113 kts 57°
2026-04-23 19:03 58.81617 5.62173 1027 ft 94 kts 32°
2026-04-23 19:03 58.82097 5.62946 1021 ft 87 kts 19°
2026-04-23 19:04 58.82575 5.63435 990 ft 69 kts 15°
2026-04-23 19:04 58.82985 5.63797 884 ft 63 kts
2026-04-23 19:04 58.83402 5.63935 860 ft 59 kts 356°
2026-04-23 19:04 58.83804 5.63935 825 ft 59 kts
2026-04-23 19:05 58.84240 5.63949 773 ft 64 kts 359°
2026-04-23 19:05 58.84689 5.63892 668 ft 66 kts
2026-04-23 19:05 58.85152 5.63899 536 ft 66 kts
2026-04-23 19:05 58.85609 5.63879 397 ft 61 kts
2026-04-23 19:06 58.86008 5.63844 309 ft 57 kts 359°
2026-04-23 19:06 58.86399 5.63826 240 ft 56 kts
2026-04-23 19:06 58.86790 5.63820 148 ft 56 kts 358°
2026-04-23 19:06 58.87162 5.63802 53 ft 53 kts 356°
2026-04-23 19:07 58.87466 5.63803 29 ft 32 kts
2026-04-23 19:07 58.87754 5.63790 65 ft 54 kts
2026-04-23 19:07 58.88157 5.63804 173 ft 61 kts
2026-04-23 19:07 58.88598 5.63796 325 ft 65 kts
2026-04-23 19:08 58.88943 5.63575 604 ft 66 kts 300°
2026-04-23 19:08 58.88944 5.62638 813 ft 86 kts 265°
2026-04-23 19:08 58.88389 5.61828 817 ft 119 kts 201°
2026-04-23 19:08 58.87538 5.61806 886 ft 122 kts 181°
2026-04-23 19:09 58.86719 5.61962 985 ft 118 kts 185°
2026-04-23 19:09 58.85953 5.61628 1087 ft 108 kts 211°
2026-04-23 19:09 58.85255 5.61163 1173 ft 109 kts 206°
2026-04-23 19:09 58.84513 5.60770 1294 ft 110 kts 203°
2026-04-23 19:10 58.83758 5.60466 1330 ft 116 kts 198°
2026-04-23 19:10 58.82910 5.60142 1213 ft 134 kts 191°
2026-04-23 19:10 58.82000 5.60351 1152 ft 138 kts 154°
2026-04-23 19:10 58.81356 5.61514 1016 ft 123 kts 102°
2026-04-23 19:11 58.81315 5.63011 881 ft 96 kts 52°
2026-04-23 19:11 58.81707 5.63829 784 ft 75 kts 14°
2026-04-23 19:11 58.82199 5.63937 703 ft 70 kts 354°
2026-04-23 19:11 58.82684 5.63954 635 ft 68 kts 353°
2026-04-23 19:12 58.82964 5.63950 702 ft 57 kts 349°
2026-04-23 19:12 58.83550 5.63910 656 ft 60 kts 349°
2026-04-23 19:12 58.83983 5.63884 708 ft 67 kts 359°
2026-04-23 19:12 58.84463 5.63900 705 ft 72 kts 353°
2026-04-23 19:13 58.84955 5.63898 656 ft 67 kts 358°
2026-04-23 19:13 58.85402 5.63904 574 ft 63 kts 357°
2026-04-23 19:13 58.85856 5.63867 440 ft 67 kts 354°
2026-04-23 19:13 58.86308 5.63852 353 ft 65 kts 352°
2026-04-23 19:14 58.86750 5.63819 177 ft 60 kts 349°
2026-04-23 19:14 58.87153 5.63794 43 ft 53 kts 351°
2026-04-23 19:14 58.87445 5.63784 29 ft 34 kts 359°
2026-04-23 19:14 58.87772 5.63791 75 ft 61 kts
2026-04-23 19:15 58.88275 5.63812 227 ft 72 kts
2026-04-23 19:15 58.88689 5.63947 646 ft 57 kts 351°
2026-04-23 19:15 58.88937 5.63205 733 ft 87 kts 284°
2026-04-23 19:15 58.88545 5.62142 968 ft 125 kts 224°
2026-04-23 19:16 58.87691 5.61745 851 ft 127 kts 183°
2026-04-23 19:16 58.86837 5.62064 657 ft 115 kts 152°
2026-04-23 19:16 58.86548 5.63132 466 ft 79 kts 50°
2026-04-23 19:17 58.87282 5.63786 46 ft 54 kts 353°
2026-04-23 19:17 58.87585 5.63820 41 ft 42 kts 346°
2026-04-23 19:17 58.87968 5.63770 91 ft 68 kts
2026-04-23 19:17 58.88475 5.63834 282 ft 77 kts
2026-04-23 19:18 58.88888 5.63523 551 ft 81 kts 294°
2026-04-23 19:18 58.88633 5.62423 799 ft 116 kts 231°
2026-04-23 19:18 58.87754 5.61988 859 ft 133 kts 194°
2026-04-23 19:18 58.86880 5.61931 712 ft 118 kts 174°
2026-04-23 19:19 58.86584 5.63462 338 ft 62 kts 17°
2026-04-23 19:19 58.86970 5.63764 125 ft 56 kts 354°
2026-04-23 19:20 58.87480 5.63778 29 ft 19 kts 360°
2026-04-23 19:20 58.87573 5.63785 29 ft 8 kts
2026-04-23 19:20 58.87611 5.63817 29 ft 7 kts 26°
2026-04-23 19:20 58.87649 5.63827 28 ft 8 kts 351°
2026-04-23 19:21 58.87724 5.63801 28 ft 17 kts 352°
2026-04-23 19:21 58.88067 5.63766 27 ft 31 kts
2026-04-23 19:21 58.88297 5.63790 26 ft 33 kts 352°
2026-04-23 19:22 58.88467 5.63764 25 ft 17 kts 352°
2026-04-23 19:22 58.88581 5.63755 24 ft 20 kts 359°
2026-04-23 19:22 58.88827 5.63747 21 ft 12 kts 353°
2026-04-23 19:23 58.88933 5.63739 20 ft 21 kts
2026-04-23 19:23 58.89088 5.63732 17 ft 19 kts 356°
2026-04-23 19:23 58.89201 5.63730 15 ft 16 kts
2026-04-23 19:24 58.89347 5.63557 13 ft 15 kts 287°
2026-04-23 19:24 58.89310 5.63400 18 ft 14 kts 230°
2026-04-23 19:24 58.89280 5.63278 19 ft 1 kts 275°
2026-04-23 19:25 58.89280 5.63275 19 ft 0 kts 274°